GW4453 Weather Reports


time (UTC)temp
F
wind
direction
speed
knots
gust
knots
rain 1hr
in
rain 24hr
in
rain mn
in
humidity
%
barometer
mb
20260906220420 95 130 5.2 7.0 0.00 0.01 0.01 22 1017.2
20260906215919 94 186 0.9 1.7 0.00 0.01 0.01 22 1017.6
20260906215414 95 183 10.4 12.2 0.00 0.01 0.01 22 1017.6
20260906214912 95 190 8.7 9.6 0.00 0.01 0.01 22 1017.7
20260906214411 94 243 4.3 5.2 0.00 0.01 0.01 22 1017.7
20260906213910 95 193 11.3 13.0 0.00 0.01 0.01 22 1017.8
20260906213405 95 222 7.0 7.8 0.00 0.01 0.01 22 1018.1
20260906212902 95 188 7.8 8.7 0.00 0.01 0.01 22 1018.0
20260906212358 96 166 7.8 12.2 0.00 0.01 0.01 22 1018.2
20260906211858 94 291 3.5 5.2 0.00 0.01 0.01 23 1017.7
20260906211353 94 246 7.8 8.7 0.00 0.01 0.01 24 1018.1
20260906210848 95 265 3.5 4.3 0.00 0.01 0.01 24 1018.1
20260906210343 94 177 6.1 7.0 0.00 0.01 0.01 23 1018.6
20260906205838 94 146 4.3 5.2 0.00 0.01 0.01 23 1018.2
20260906205334 93 177 8.7 13.0 0.00 0.01 0.01 23 1018.4
20260906204830 93 199 5.2 6.1 0.00 0.01 0.01 23 1018.4
20260906204329 94 225 7.0 7.8 0.00 0.01 0.01 23 1018.6
20260906203828 93 203 7.8 8.7 0.00 0.01 0.01 25 1018.7
20260906203324 93 235 9.6 11.3 0.00 0.01 0.01 25 1018.9
20260906202821 94 225 6.1 7.8 0.00 0.01 0.01 24 1018.8
20260906202320 93 179 10.4 13.0 0.00 0.01 0.01 25 1018.9
20260906201815 93 181 11.3 20.0 0.00 0.01 0.01 24 1019.0
20260906201314 92 225 2.6 2.6 0.00 0.01 0.01 26 1019.0
20260906200810 92 226 7.8 8.7 0.00 0.01 0.01 26 1019.3
20260906200306 92 153 7.8 9.6 0.00 0.01 0.01 25 1019.1
20260906195801 93 233 6.1 7.8 0.00 0.01 0.01 26 1019.1
20260906195257 91 311 2.6 4.3 0.00 0.01 0.01 27 1019.5
20260906194753 92 226 6.1 7.0 0.00 0.01 0.01 27 1019.6
20260906194249 92 240 14.8 17.4 0.00 0.01 0.01 27 1019.1
20260906193748 92 141 4.3 5.2 0.00 0.01 0.01 27 1019.4
20260906193244 91 235 2.6 2.6 0.00 0.01 0.01 28 1020.1
20260906192740 91 207 5.2 6.1 0.00 0.01 0.01 27 1019.8
20260906192240 91 267 6.1 7.0 0.00 0.01 0.01 28 1019.9
20260906191739 91 225 7.0 8.7 0.00 0.01 0.01 28 1020.1
20260906191233 92 236 5.2 6.1 0.00 0.01 0.01 27 1020.1
20260906190728 90 221 0.9 0.9 0.00 0.01 0.01 28 1020.2
20260906190222 90 258 6.1 6.1 0.00 0.01 0.01 28 1020.2
20260906185722 89 244 5.2 8.7 0.00 0.01 0.01 29 1020.3
20260906185221 89 288 4.3 6.1 0.00 0.01 0.01 31 1020.2
20260906184715 89 189 0.9 0.9 0.00 0.01 0.01 31 1020.3
20260906184211 90 182 4.3 5.2 0.00 0.01 0.01 31 1020.4
20260906183707 89 195 4.3 5.2 0.00 0.01 0.01 32 1020.5
20260906183203 89 157 5.2 6.1 0.00 0.01 0.01 31 1020.8
20260906182703 89 249 6.1 6.1 0.00 0.01 0.01 31 1020.5
20260906182158 89 202 7.0 7.8 0.00 0.01 0.01 31 1020.7
20260906181653 88 196 6.1 7.0 0.00 0.01 0.01 33 1020.8
20260906181149 89 196 1.7 1.7 0.00 0.01 0.01 33 1021.0
20260906180644 88 199 7.0 7.8 0.00 0.01 0.01 32 1021.1
20260906180139 87 124 2.6 2.6 0.00 0.01 0.01 34 1021.0
20260906175637 87 296 5.2 6.1 0.00 0.01 0.01 33 1021.2
20260906175132 87 275 4.3 5.2 0.00 0.01 0.01 34 1021.4
20260906174630 87 243 5.2 6.1 0.00 0.01 0.01 33 1021.5
20260906174126 88 247 6.1 7.8 0.00 0.01 0.01 33 1021.4
20260906173620 87 174 5.2 6.1 0.00 0.01 0.01 37 1021.5
20260906173115 86 203 10.4 12.2 0.00 0.01 0.01 36 1021.9
20260906172609 86 159 9.6 11.3 0.00 0.01 0.01 38 1021.9
20260906172106 86 170 3.5 4.3 0.00 0.01 0.01 39 1021.9
20260906171605 86 148 7.8 9.6 0.00 0.01 0.01 38 1022.0
20260906171101 85 188 7.8 8.7 0.00 0.01 0.01 39 1022.0
20260906170556 86 144 6.1 9.6 0.00 0.01 0.01 39 1022.1
20260906170055 85 180 6.1 7.8 0.00 0.01 0.01 40 1022.3
20260906165552 86 166 9.6 11.3 0.00 0.01 0.01 41 1022.0
20260906165047 85 168 5.2 7.0 0.00 0.01 0.01 40 1022.2
20260906164546 85 175 7.8 9.6 0.00 0.01 0.01 40 1022.1
20260906164042 84 200 5.2 7.0 0.00 0.01 0.01 44 1022.0
20260906163537 83 127 7.0 7.8 0.00 0.01 0.01 44 1022.4
20260906163033 83 156 9.6 9.6 0.00 0.01 0.01 46 1022.5
20260906162530 82 174 10.4 12.2 0.00 0.01 0.01 45 1022.3
20260906162025 82 174 11.3 13.0 0.00 0.01 0.01 46 1022.4
20260906161520 82 184 11.3 12.2 0.00 0.01 0.01 47 1022.3
20260906161019 82 159 6.1 8.7 0.00 0.01 0.01 47 1022.5
20260906160518 82 191 7.8 8.7 0.00 0.01 0.01 47 1022.8
20260906160017 80 197 10.4 13.9 0.00 0.01 0.01 49 1022.8
20260906155514 80 170 8.7 11.3 0.00 0.01 0.01 49 1022.4
20260906155011 80 160 9.6 11.3 0.00 0.01 0.01 50 1022.5
20260906154506 79 179 9.6 12.2 0.00 0.01 0.01 51 1022.7
20260906154004 79 168 13.9 14.8 0.00 0.01 0.01 50 1022.8
20260906153503 79 179 11.3 13.0 0.00 0.01 0.01 52 1022.9
20260906152959 78 183 10.4 12.2 0.00 0.01 0.01 53 1022.9
20260906152453 78 188 8.7 13.0 0.00 0.01 0.01 53 1023.1
20260906151952 77 166 10.4 13.0 0.00 0.01 0.01 54 1022.7
20260906151448 77 176 10.4 12.2 0.00 0.01 0.01 54 1022.9
20260906150944 77 172 10.4 12.2 0.00 0.01 0.01 55 1022.9
20260906150439 78 167 11.3 13.0 0.00 0.01 0.01 53 1023.0
20260906145938 77 170 7.8 8.7 0.00 0.01 0.01 53 1022.9
20260906145438 77 184 9.6 12.2 0.00 0.01 0.01 55 1022.9
20260906144932 76 160 8.7 9.6 0.00 0.01 0.01 56 1023.1
20260906144427 75 170 9.6 11.3 0.00 0.01 0.01 57 1022.9
20260906143922 76 164 10.4 12.2 0.00 0.01 0.01 57 1022.8
20260906143418 75 176 9.6 12.2 0.00 0.01 0.01 59 1022.9
20260906142914 74 184 9.6 9.6 0.00 0.01 0.01 60 1022.7
20260906142413 74 170 10.4 11.3 0.00 0.01 0.01 60 1023.0
20260906141908 73 207 9.6 11.3 0.00 0.01 0.01 62 1022.9
20260906141408 72 168 7.8 8.7 0.00 0.01 0.01 63 1022.8
20260906140902 71 208 7.8 9.6 0.00 0.01 0.01 65 1023.0
20260906140357 70 177 7.8 8.7 0.00 0.01 0.01 66 1022.8
20260906135855 70 162 5.2 6.1 0.00 0.01 0.01 67 1022.9
20260906135354 69 193 4.3 5.2 0.00 0.01 0.01 68 1022.7
20260906134850 68 186 3.5 4.3 0.00 0.01 0.01 71 1023.1
20260906134345 67 215 3.5 4.3 0.00 0.01 0.01 73 1022.8
20260906133840 66 190 2.6 2.6 0.00 0.01 0.01 74 1022.9
20260906133336 66 204 2.6 2.6 0.00 0.01 0.01 75 1022.8
20260906132831 65 224 3.5 4.3 0.00 0.01 0.01 76 1022.8
20260906132327 65 187 1.7 2.6 0.00 0.01 0.01 77 1022.8
20260906131822 64 208 2.6 2.6 0.00 0.01 0.01 77 1022.8
20260906131317 64 198 2.6 2.6 0.00 0.01 0.01 77 1022.8
20260906130813 64 190 2.6 2.6 0.00 0.01 0.01 78 1022.8
20260906130313 63 219 3.5 4.3 0.00 0.01 0.01 79 1022.8
20260906125812 63 178 1.7 1.7 0.00 0.01 0.01 78 1022.7
20260906125309 63 160 0.9 0.9 0.00 0.01 0.01 78 1022.7
20260906124804 63 187 2.6 2.6 0.00 0.01 0.01 78 1022.9
20260906124300 63 157 0.9 1.7 0.00 0.01 0.01 78 1022.7
20260906123759 63 132 0.9 0.9 0.00 0.01 0.01 78 1022.7
20260906123254 63 104 0.9 0.9 0.00 0.01 0.01 77 1022.7
20260906122754 63 109 1.7 1.7 0.00 0.01 0.01 78 1022.9
20260906122249 63 51 0.9 1.7 0.00 0.01 0.01 79 1022.7
20260906121745 63 161 0.0 0.0 0.00 0.01 0.01 78 1022.8
20260906121242 62 181 0.0 0.9 0.00 0.01 0.01 78 1022.5
20260906120737 63 181 0.9 0.9 0.00 0.01 0.01 77 1022.8
20260906120234 64 177 2.6 2.6 0.00 0.01 0.01 77 1022.5
20260906115729 64 204 2.6 4.3 0.00 0.01 0.01 77 1022.5
20260906115224 64 199 1.7 1.7 0.00 0.01 0.01 77 1022.7
20260906114723 64 240 1.7 1.7 0.00 0.01 0.01 77 1022.4
20260906114219 64 266 0.9 0.9 0.00 0.01 0.01 76 1022.5
20260906113714 65 278 1.7 1.7 0.00 0.01 0.01 75 1022.7
20260906113213 65 276 0.9 0.9 0.00 0.01 0.01 75 1022.8
20260906112712 65 259 1.7 1.7 0.00 0.01 0.01 75 1022.9
20260906112204 65 236 1.7 1.7 0.00 0.01 0.01 75 1022.4
20260906111703 65 245 1.7 2.6 0.00 0.01 0.01 75 1022.4
20260906111157 66 278 0.9 1.7 0.00 0.01 0.01 74 1022.3
20260906110653 66 164 1.7 1.7 0.00 0.01 0.01 73 1022.7
20260906110148 65 11 0.9 0.9 0.00 0.01 0.01 74 1022.5
20260906105642 66 33 0.0 0.9 0.00 0.01 0.01 74 1022.5
20260906105138 66 25 2.6 2.6 0.00 0.01 0.01 73 1022.7
20260906104638 67 24 0.9 0.9 0.00 0.01 0.01 72 1022.7
20260906104137 68 71 1.7 1.7 0.00 0.01 0.01 70 1022.4
20260906103635 68 147 5.2 6.1 0.00 0.01 0.01 69 1022.5
20260906103130 69 145 5.2 7.8 0.00 0.01 0.01 69 1022.3
20260906102625 69 163 7.0 8.7 0.00 0.01 0.01 69 1022.5
20260906102120 69 134 6.1 7.0 0.00 0.01 0.01 69 1022.0
20260906101614 69 173 7.8 9.6 0.00 0.01 0.01 68 1022.1
20260906101109 69 164 9.6 11.3 0.00 0.01 0.01 69 1022.2
20260906100605 69 161 7.8 9.6 0.00 0.01 0.01 68 1021.9
20260906100105 69 148 7.0 7.8 0.00 0.01 0.01 69 1022.1
20260906095604 69 154 10.4 12.2 0.00 0.01 0.01 68 1021.9
20260906095100 69 152 9.6 11.3 0.00 0.01 0.01 68 1022.1
20260906094559 69 159 7.0 7.8 0.00 0.01 0.01 68 1022.2
20260906094055 69 160 7.8 8.7 0.00 0.01 0.01 68 1022.1
20260906093550 70 162 11.3 12.2 0.00 0.01 0.01 68 1022.2
20260906093045 70 158 12.2 13.9 0.07 0.01 0.01 68 1022.1
20260906092540 69 152 7.0 7.8 0.07 0.01 0.01 70 1021.9
20260906092035 71 175 9.6 13.0 0.00 0.00 0.00 67 1022.5
20260906091531 71 168 10.4 11.3 0.00 0.00 0.00 65 1022.1
20260906091027 71 169 11.3 13.0 0.00 0.00 0.00 65 1022.1
20260906090522 71 157 9.6 11.3 0.00 0.00 0.00 65 1021.9
20260906090017 71 171 9.6 12.2 0.00 0.00 0.00 64 1022.1
20260906085516 72 149 10.4 13.0 0.00 0.00 0.00 64 1022.1
20260906085015 71 152 7.0 8.7 0.00 0.00 0.00 63 1022.0
20260906084510 71 159 7.8 7.8 0.00 0.00 0.00 63 1022.0
20260906084009 71 138 6.1 7.0 0.00 0.00 0.00 62 1022.0
20260906083505 70 139 5.2 6.1 0.00 0.00 0.00 62 1022.2
20260906083004 70 144 3.5 4.3 0.00 0.00 0.00 61 1022.1
20260906082459 70 154 5.2 6.1 0.00 0.00 0.00 61 1022.3
20260906081955 70 136 4.3 5.2 0.00 0.00 0.00 61 1022.1
20260906081450 70 135 2.6 2.6 0.00 0.00 0.00 61 1022.0
20260906080946 69 143 4.3 4.3 0.00 0.00 0.00 63 1022.2
20260906080442 69 126 0.9 0.9 0.00 0.00 0.00 62 1022.5
20260906075937 69 129 0.9 1.7 0.00 0.00 0.00 63 1022.2
20260906075431 68 82 0.9 0.9 0.00 0.00 0.00 63 1022.2
20260906074927 68 70 0.0 0.0 0.00 0.00 0.00 62 1022.3
20260906074421 68 41 1.7 1.7 0.00 0.00 0.00 62 1022.5
20260906073920 70 73 2.6 2.6 0.00 0.00 0.00 60 1022.4
20260906073415 71 204 1.7 1.7 0.00 0.00 0.00 59 1022.5
20260906072911 70 41 2.6 2.6 0.00 0.00 0.00 59 1022.3
20260906072406 69 320 2.6 2.6 0.00 0.00 0.00 62 1022.4
20260906071902 69 29 1.7 1.7 0.00 0.00 0.00 59 1022.4
20260906071357 69 94 0.0 0.0 0.00 0.00 0.00 59 1022.5
20260906070853 69 83 0.9 1.7 0.00 0.00 0.00 58 1022.5
20260906070349 70 103 0.0 0.0 0.00 0.00 0.00 57 1022.5
20260906065844 70 92 1.7 1.7 0.00 0.00 0.00 53 1022.5
20260906065339 71 179 0.9 0.9 0.00 0.00 0.00 56 1022.4
20260906064834 71 233 0.9 1.7 0.00 0.00 0.00 56 1022.3
20260906064330 71 155 0.9 1.7 0.00 0.00 0.00 54 1022.7
20260906063824 72 172 2.6 2.6 0.00 0.00 0.00 53 1022.4
20260906063320 71 133 0.9 1.7 0.00 0.00 0.00 52 1022.4
20260906062815 70 119 0.0 0.9 0.00 0.00 0.00 49 1022.5
20260906062314 69 85 0.9 0.9 0.00 0.00 0.00 49 1022.9
20260906061810 69 71 0.0 0.9 0.00 0.00 0.00 47 1022.8
20260906061306 68 118 0.0 0.0 0.00 0.00 0.00 48 1022.8
20260906060801 69 118 0.0 0.9 0.00 0.00 0.00 44 1023.2
20260906060259 67 69 0.9 0.9 0.00 0.00 0.00 47 1023.0
20260906055754 66 63 0.9 0.9 0.00 0.00 0.00 45 1023.0
20260906055249 66 213 0.0 0.0 0.00 0.00 0.00 45 1023.0
20260906054744 65 215 0.9 0.9 0.00 0.00 0.00 45 1023.0
20260906054240 65 177 0.9 0.9 0.00 0.00 0.00 45 1022.9
20260906053737 66 167 1.7 1.7 0.00 0.00 0.00 45 1022.8
20260906053232 66 65 0.0 0.9 0.00 0.00 0.00 43 1022.7
20260906052727 65 108 0.9 0.9 0.00 0.00 0.00 43 1022.9
20260906052223 66 136 0.0 0.0 0.00 0.00 0.00 43 1023.0
20260906051720 66 248 0.0 0.0 0.00 0.00 0.00 43 1022.9
20260906051219 67 221 1.7 1.7 0.00 0.00 0.00 41 1022.8
20260906050714 66 151 0.0 0.0 0.00 0.00 0.00 41 1022.8
20260906050210 66 206 0.0 0.9 0.00 0.00 0.00 41 1022.9
20260906045708 66 45 0.9 1.7 0.00 0.00 0.00 41 1022.7
20260906045203 66 198 0.9 1.7 0.00 0.00 0.00 42 1023.0
20260906044659 66 119 0.0 0.0 0.00 0.00 0.00 43 1022.8
20260906044154 66 120 0.9 0.9 0.00 0.00 0.00 41 1023.0
20260906043650 67 200 0.9 1.7 0.00 0.00 0.00 43 1022.7
20260906043146 67 54 0.0 0.0 0.00 0.00 0.00 43 1022.9
20260906042645 68 53 0.9 0.9 0.00 0.00 0.00 42 1022.9
20260906042139 68 53 0.9 0.9 0.00 0.00 0.00 41 1022.9
20260906041635 68 215 2.6 2.6 0.00 0.00 0.00 42 1022.7
20260906041130 69 73 0.9 1.7 0.00 0.00 0.00 41 1022.4
20260906040625 69 180 0.0 0.0 0.00 0.00 0.00 41 1022.4
20260906040121 69 200 1.7 1.7 0.00 0.00 0.00 40 1022.7
20260906035616 70 42 0.9 1.7 0.00 0.00 0.00 39 1022.8
20260906035111 72 42 0.0 0.0 0.00 0.00 0.00 35 1022.7
20260906034606 72 42 0.9 0.9 0.00 0.00 0.00 35 1022.5
20260906034101 71 42 0.9 0.9 0.00 0.00 0.00 36 1022.7
20260906033556 71 42 0.0 0.0 0.00 0.00 0.00 39 1022.5
20260906033051 74 50 0.9 0.9 0.00 0.00 0.00 36 1022.4
20260906032548 73 74 0.9 0.9 0.00 0.00 0.00 37 1022.4
20260906032048 76 55 0.9 0.9 0.00 0.00 0.00 35 1022.4
20260906031543 75 12 2.6 2.6 0.00 0.00 0.00 35 1022.4
20260906031039 75 55 0.9 0.9 0.00 0.00 0.00 35 1022.5
20260906030538 75 50 0.9 1.7 0.00 0.00 0.00 34 1022.1
20260906030037 76 41 0.9 0.9 0.00 0.00 0.00 33 1022.3
20260906025532 76 54 2.6 2.6 0.00 0.00 0.00 32 1022.2
20260906025030 74 148 2.6 2.6 0.00 0.00 0.00 32 1022.3
20260906024525 75 147 1.7 1.7 0.00 0.00 0.00 31 1022.3
20260906024020 76 47 0.9 0.9 0.00 0.00 0.00 31 1021.8
20260906023516 76 35 0.9 0.9 0.00 0.00 0.00 31 1021.5
20260906023011 77 9 2.6 2.6 0.00 0.00 0.00 30 1021.4
20260906022506 77 20 1.7 1.7 0.00 0.00 0.00 30 1021.5
20260906022001 77 10 2.6 2.6 0.00 0.00 0.00 29 1021.2
20260906021456 77 15 1.7 1.7 0.00 0.00 0.00 29 1021.3
20260906020951 78 5 2.6 2.6 0.00 0.00 0.00 29 1021.3
20260906020444 79 18 2.6 2.6 0.00 0.00 0.00 29 1021.2
20260906015938 79 8 1.7 1.7 0.00 0.00 0.00 28 1021.1
20260906015433 81 7 2.6 2.6 0.00 0.00 0.00 27 1020.8
20260906014933 81 30 1.7 1.7 0.00 0.00 0.00 27 1021.1
20260906014432 82 28 2.6 2.6 0.00 0.00 0.00 26 1020.8
20260906013929 83 49 1.7 1.7 0.00 0.00 0.00 26 1021.1
20260906013424 83 35 1.7 1.7 0.00 0.00 0.00 25 1020.8
20260906012920 84 48 2.6 2.6 0.00 0.00 0.00 25 1021.0
20260906012420 84 47 1.7 1.7 0.00 0.00 0.00 25 1021.1
20260906011919 85 35 2.6 2.6 0.00 0.00 0.00 24 1021.1
20260906011414 86 44 2.6 4.3 0.00 0.00 0.00 24 1021.0
20260906010909 87 45 2.6 2.6 0.00 0.00 0.00 23 1021.0
20260906010405 87 20 4.3 7.8 0.00 0.00 0.00 23 1020.8
20260906005901 88 62 3.5 4.3 0.00 0.00 0.00 23 1020.8
20260906005400 88 31 4.3 6.1 0.00 0.00 0.00 22 1021.0
20260906004859 89 47 4.3 6.1 0.00 0.00 0.00 22 1020.8
20260906004353 89 32 6.1 7.0 0.00 0.00 0.00 21 1021.0
20260906003849 89 59 1.7 1.7 0.00 0.00 0.00 22 1020.8
20260906003344 89 34 4.3 5.2 0.00 0.00 0.00 21 1020.7
20260906002840 90 46 6.1 7.0 0.00 0.00 0.00 21 1020.6
20260906002339 91 60 4.3 5.2 0.00 0.00 0.00 21 1020.8
20260906001835 91 47 1.7 2.6 0.00 0.00 0.00 20 1021.0
20260906001330 91 39 2.6 2.6 0.00 0.00 0.00 21 1020.6
20260906000825 91 47 2.6 2.6 0.00 0.00 0.00 20 1021.0
20260906000320 91 18 1.7 1.7 0.00 0.00 0.00 21 1020.7
20260905235819 91 343 3.5 5.2 0.00 0.00 0.00 20 1020.7
20260905235314 91 33 1.7 1.7 0.00 0.00 0.00 20 1020.7
20260905234810 91 48 2.6 2.6 0.00 0.00 0.00 20 1020.7
20260905234305 91 62 3.5 4.3 0.00 0.00 0.00 20 1020.8
20260905233759 92 19 3.5 4.3 0.00 0.00 0.00 20 1020.7
20260905233254 93 33 3.5 4.3 0.00 0.00 0.00 20 1020.4
20260905232753 92 195 3.5 4.3 0.00 0.00 0.00 20 1020.6
20260905232249 92 223 2.6 4.3 0.00 0.00 0.00 20 1020.4
20260905231745 93 252 4.3 7.0 0.00 0.00 0.00 20 1020.5
20260905231240 91 211 3.5 4.3 0.00 0.00 0.00 20 1020.5
20260905230737 91 230 6.1 7.0 0.00 0.00 0.00 20 1020.4
20260905230234 92 258 3.5 5.2 0.00 0.00 0.00 20 1020.5
20260905225734 92 227 2.6 4.3 0.00 0.00 0.00 20 1020.4
20260905225229 94 161 0.9 1.7 0.00 0.00 0.00 19 1020.4
20260905224728 95 8 1.7 1.7 0.00 0.00 0.00 19 1020.4
20260905224224 95 44 0.0 0.0 0.00 0.00 0.00 19 1020.5
20260905223720 93 35 0.9 1.7 0.00 0.00 0.00 19 1020.4
20260905223217 93 241 1.7 1.7 0.00 0.00 0.00 19 1020.6
20260905222712 92 145 0.9 1.7 0.00 0.00 0.00 19 1020.3
20260905222211 92 321 0.9 1.7 0.00 0.00 0.00 20 1020.6
20260905221707 91 272 4.3 6.1 0.00 0.00 0.00 20 1020.7
20260905221204 92 272 7.8 8.7 0.00 0.00 0.00 20 1020.6
20260905220659 92 232 4.3 6.1 0.00 0.00 0.00 20 1020.7